Weather in Aleksandrovka

Russia / Volgograd Oblast     49°34′30″N   44°18′36″E
temp.,
°C
wind,
m/s
gust,
m/s
humid.,
%
clouds,
%
prec.,
mm/h
press.,
hPa
HPBL,
m
5 august, thu
thu500:00+21n356194 0.0 101680
03:00+20nne366499 0.0 1016117
06:00+20nne356518 0.0 1017150
09:00+26ne3338100 0.0 10171354
12:00+29n3227100 0.0 10162327
15:00+31n33221 0.0 10152754
18:00+30n3223100 0.0 10152663
21:00+24ne4633100 0.0 101599
6 august, fri
fri600:00+22ene354070 0.0 101569
03:00+20e46437 0.0 101579
06:00+21e37454 0.0 1016177
09:00+29e44275 0.0 1015885
12:00+32ese55210 0.0 10142119
15:00+33ese54170 0.0 10132427
18:00+32ese45195 0.0 10122263
21:00+25ene453017 0.0 101361
7 august, sat
sat700:00+24e614305 0.0 1013300
03:00+22e514337 0.0 1013272
06:00+22e512325 0.0 1013295
09:00+29ese6823100 0.0 1013742
12:00+33ese661714 0.0 10121700
15:00+35ese5514100 0.0 10112157
18:00+33e4616100 0.0 1010266
21:00+27e482162 0.0 1011110
8 august, sun
sun800:00+26e51124100 0.0 1011171
03:00+24ese5122844 0.0 1011195
06:00+25ese41028100 0.0 1012218
09:00+32ese6920100 0.0 1012661
12:00+37ese7814100 0.0 10102137
15:00+38e81213100 0.0 10094200
18:00+31ne71026100 0.0 1009203
21:00+32ne81521100 0.0 1008612
9 august, mon
mon900:00+29ene7122311 0.0 1008219
03:00+26ene492975 0.0 1007164
06:00+24ne384428 0.4 1007194
09:00+29se2230100 0.4 1007670
12:00+35sw562095 0.0 10071803
15:00+37sw55185 0.0 10062816
18:00+34wnw662595 0.0 10061487
21:00+28wnw463299 0.0 100782